Location: Dodgeville, WI 53533, USA
(43.0344°N, 90.0900°W)
Time: 13:20:50
(UTC-05:00)

OTV 5 (USA 277) - Visible Passes

Search period start: 18 October 2018 00:00
Search period end: 28 October 2018 00:00
Orbit: 387 x 394 km, 54.5° (Epoch: 08 September)

Date Brightness Start Highest point End Pass type
(mag) Time Alt. Az. Time Alt. Az. Time Alt. Az.
18 Oct ? 04:53:28 13° ESE 04:53:28 13° ESE 04:53:53 10° SE visible
18 Oct ? 06:25:55 11° WSW 06:26:09 11° SW 06:27:05 10° SW visible
19 Oct ? 05:32:31 11° S 05:32:31 11° S 05:32:39 10° S visible
22 Oct ? 19:17:18 10° SSE 19:17:21 10° SE 19:17:21 10° SE visible
23 Oct ? 19:54:26 10° SSW 19:56:09 27° SSW 19:56:09 27° SSW visible
24 Oct ? 18:58:44 10° S 19:01:15 22° SE 19:02:22 18° E visible
24 Oct ? 20:33:58 10° WSW 20:34:47 16° W 20:34:47 16° W visible
25 Oct ? 19:37:20 10° SW 19:40:31 84° NW 19:40:52 67° NE visible
26 Oct ? 18:41:08 10° SSW 18:44:09 41° SE 18:46:51 12° ENE visible
26 Oct ? 20:17:26 10° W 20:19:15 22° NW 20:19:15 22° NW visible
27 Oct ? 19:20:31 10° WSW 19:23:35 45° NW 19:25:08 24° NNE visible
